Cloud_Cover
33 20 0 0 1 2 0 0 2 1 18 28 22 100 100 100 0 0 0 0 0 2 4 0 2 3 4 3 5 5 2 5 11 17 5 18 1 5 0 5 0 0 0 0 8
10 2 0 2 18 20 19 19 7 8 20 35 76 100 100 100 0 0 0 0 0 5 0 0 3 0 0 22 5 12 56 5 10 9 5 32 4 5 4 17 1 0 0 0 7
3 0 0 4 15 17 22 23 17 24 25 35 56 71 100 83 0 0 0 0 0 5 0 0 3 5 4 5 5 60 100 91 16 77 5 77 5 6 5 6 0 0 0 0 0
0 0 0 11 15 31 26 25 38 98 100 34 19 31 100 0 0 0 0 0 0 0 0 5 5 1 0 5 15 96 95 100 93 100 53 96 69 67 5 5 0 0 0 0 0
0 3 2 11 55 98 100 100 100 100 100 75 18 21 2 0 0 0 0 0 0 0 0 2 5 5 2 5 5 5 19 82 100 100 100 100 56 15 5 5 0 0 0 0 0
2 11 25 24 100 100 100 100 100 100 100 32 20 50 1 0 0 0 0 0 0 0 0 0 3 2 5 5 5 5 7 79 100 99 88 100 16 12 5 5 0 0 0 0 0
100 100 100 100 100 100 100 100 100 100 96 47 15 0 0 0 0 0 0 0 0 0 0 0 0 5 3 4 5 5 5 5 100 93 30 9 7 50 3 0 2 0 0 0 0
100 100 100 100 100 100 100 100 99 30 27 9 1 0 0 0 0 0 0 0 0 0 0 0 0 3 4 0 1 15 10 54 62 38 90 83 31 8 2 7 35 0 0 0 0
100 100 100 100 100 100 100 83 4 0 0 0 0 0 0 0 0 0 0 0 0 0 0 0 0 0 0 0 0 0 7 5 5 44 69 59 17 5 5 100 11 3 0 0 0
100 100 100 100 100 100 73 0 0 0 0 0 0 0 0 0 0 0 0 0 0 0 0 0 0 0 0 1 0 2 0 5 12 71 85 93 86 5 5 53 96 5 0 0 0
100 100 100 100 100 100 22 0 0 0 0 0 0 0 0 0 0 0 0 0 0 0 0 0 0 0 0 0 1 5 0 0 5 5 100 100 100 100 2 8 90 53 5 0 0
100 100 100 100 91 7 36 0 0 0 0 0 0 0 0 0 0 0 0 0 0 0 0 0 0 0 0 0 0 0 0 0 4 5 25 35 98 75 5 3 5 88 57 2 5
100 100 100 100 2 0 0 0 0 0 0 0 0 0 0 0 0 0 0 0 0 0 0 0 0 0 0 0 0 0 0 0 0 15 4 3 82 47 5 46 38 38 42 48 5
100 100 100 93 0 0 0 0 0 0 0 0 0 0 0 0 0 0 0 0 0 0 0 0 0 0 0 0 0 0 0 0 51 1 3 0 57 86 63 39 100 100 100 100 99
100 100 100 96 10 0 0 0 0 0 0 0 0 0 0 0 0 0 0 0 0 0 0 0 0 0 0 0 0 0 0 0 0 0 0 1 0 4 12 100 100 100 100 100 100
100 100 99 30 36 0 0 0 0 0 0 0 0 0 0 0 0 0 0 0 0 0 0 0 0 0 0 0 0 0 0 0 0 0 0 0 0 0 5 100 100 78 100 100 96
100 100 84 0 0 0 0 0 0 0 0 0 0 0 0 0 0 0 0 0 0 0 0 0 0 0 0 0 0 0 0 0 0 0 0 0 0 0 24 96 100 100 94 100 100
100 65 29 0 0 0 0 0 0 0 0 0 0 0 0 0 0 0 0 0 0 0 0 0 0 0 0 0 0 0 0 0 0 0 0 0 3 70 29 11 100 100 100 100 100
16 0 0 0 0 0 0 0 0 0 0 0 0 0 0 0 0 0 0 0 0 0 0 0 0 0 0 0 0 0 0 0 0 0 0 0 2 0 100 64 25 96 100 100 100
0 0 0 0 0 0 0 0 0 0 0 0 0 0 0 0 0 0 0 0 0 0 0 0 0 0 0 0 0 0 0 0 0 0 0 2 5 5 22 3 5 2 2 66 100
0 0 0 0 0 0 0 0 0 0 0 0 0 0 0 0 0 0 0 0 0 0 0 0 0 0 0 0 0 0 0 0 0 0 0 0 0 0 5 2 0 1 5 5 56
0 0 0 0 0 0 0 0 0 0 0 0 0 0 0 0 0 0 0 0 0 0 0 0 0 0 0 0 0 0 0 0 0 0 0 0 0 5 0 0 5 0 0 7 11
0 0 0 0 0 0 0 0 0 0 0 0 0 0 0 0 0 0 0 0 0 0 0 0 0 0 0 0 0 0 0 0 0 0 0 0 0 0 94 37 0 3 3 5 1
0 0 0 0 0 0 0 0 0 0 0 0 0 0 0 0 0 0 0 0 0 0 0 0 0 0 0 0 0 0 0 0 0 0 0 0 0 0 2 29 2 0 3 3 5
0 0 0 0 0 0 0 0 0 0 0 0 0 0 0 0 0 0 0 0 0 0 0 0 0 0 0 0 0 0 0 0 0 0 0 0 0 0 0 0 2 0 0 4 4
0 0 0 0 0 0 0 0 0 0 0 0 0 0 0 0 0 0 0 0 0 0 0 0 0 0 0 0 0 0 0 0 0 0 0 0 0 0 0 34 99 100 100 100 57
0 0 0 0 0 0 0 0 0 0 0 0 0 0 0 0 0 0 0 0 0 0 0 0 0 0 0 0 0 0 0 0 0 0 0 0 0 0 0 0 51 100 99 91 91